[ hide orbit diagram ]
For accurate long-term ephemerides, please instead use our Horizons system.This orbit viewer was implemented using two-body methods, and hence should not be used for determining accurate long-term trajectories (over several years or decades) or planetary encounter circumstances.
Orbital Elements at Epoch 2459000.5 (2020-May-31.0) TDB
Reference: JPL 23 (heliocentric ecliptic J2000)
Element | Value | Uncertainty (1-sigma) | Units |
e | .1489409149661522 | 5.3213e-08 | |
a | 2.243804628635697 | 1.2366e-08 | au |
q | 1.909610314241409 | 1.2425e-07 | au |
i | 5.211740021538878 | 5.4753e-06 | deg |
node | 144.0690931898416 | 4.0723e-05 | deg |
peri | 169.0557134361856 | 4.3333e-05 | deg |
M | 278.2737432940156 | 1.5269e-05 | deg |
tp | 2459279.198796247386 (2021-Mar-05.69879625) | 5.2584e-05 | TDB |
period | 1227.654008552093 3.36 | 1.0148e-05 2.778e-08 | d yr |
n | .2932422307035738 | 2.4241e-09 | deg/d |
Q | 2.577998943029985 | 1.4207e-08 | au |
|
| | Orbit Determination Parameters
Additional Information
|
[ show covariance matrix ]
Physical Parameter Table
Parameter |
Symbol |
Value |
Units |
Sigma |
Reference |
Notes |
absolute magnitude |
H |
16.2 |
|
n/a |
MPO417411 |
|
|
85221 (1993 FX13) Discovered 1993-Mar-17 by UESAC at La Silla |
Reference: 20040830/Numbers.arc | Last Updated: 2004-09-06 |
|
[ show close-approach data ]
Alternate Designations
1993 FX13 = 2000 KE82 = 2001 XM204 |
|
|